User: anonymous   Login
Location: ???????
(55.4362°N, 38.1183°E)
Time: 17:45:30
(UTC+00:00)
Language:

Cosmos 1816 Rocket - Orbit

View from above orbital plane
View from above orbital plane
View from above satellite
View from above satellite

Ground track
Ground track

The orbit data is extracted from the following two-line orbital elements,

1 17360U 87009B   21264.09689322  .00000023  00000-0  74758-5 0  9996
2 17360  82.9229 187.3928 0032835 155.7939 216.0542 13.76759759740425
Epoch (UTC): 21 September 2021 02:19:31
Eccentricity: 0.0032835
inclination: 82.9229°
perigee height: 951 km
apogee height: 999 km
right ascension of ascending node: 187.3928°
argument of perigee: 155.7939°
revolutions per day: 13.76759759
mean anomaly at epoch: 216.0542°
orbit number at epoch: 74042

The dashed part of the orbit path shows where the satellite is in the earth's shadow,  

DLR